Weather Roundup
Issued by NWS Springfield, MO

Home | Current Version | Previous Version | Text Only | Print | Product List | Glossary On
Versions: 1 2 3 4 5 6 7 8 9 10 11 12 13 14 15 16 17 18 19 20 21 22 23 24 25 26 27 28 29 30 31 32 33 34 35 36 37 38 39 40 41 42 43 44 45 46 47 48 49 50
881
NZUS99 KSGF 122107
HRRSGF

HOURLY WEATHER
NATIONAL WEATHER SERVICE SPRINGFIELD MO
300 PM CST FRI FEB 12 2016

......SGF CWA......

CITY           SKY/WX    TMP DP  RH WIND       PRES   REMARKS
SPRINGFIELD    SUNNY     44  22  41 N16       30.32S
JOPLIN         SUNNY     45  26  47 N10       30.38S
WEST PLAINS    SUNNY     48  21  34 N13G22    30.28R
ROLLA          SUNNY     37  19  48 NW15G24   30.30R WCI  28
OSAGE BEACH    MOSUNNY   41  19  42 NW9G16    30.35R
BRANSON        MOSUNNY   48  23  37 NW15G23   30.31S

......SURROUNDING SGF CWA......

CITY           SKY/WX    TMP DP  RH WIND       PRES   REMARKS
CHANUTE        SUNNY     45  26  47 N13G24    30.40S
PARSONS        SUNNY     47  27  45 N15G21    30.41S
COFFEYVILLE    SUNNY     47  26  44 N13       30.40S
EMPORIA        MOSUNNY   40  23  50 N18G25    30.42F WCI  31
GROVE OK       SUNNY     50  27  40 N7G18     30.37R
ROGERS AR      SUNNY     47  25  42 N12G17    30.33S
SILOAM SPRINGS SUNNY     50  25  37 N15       30.34R
HARRISON AR    SUNNY     50  24  36 NW14G21   30.30S
NEAR YELLVILLE SUNNY    N/A N/A N/A N14G20    30.27S

......KANSAS AND MISSOURI......

CITY           SKY/WX    TMP DP  RH WIND       PRES   REMARKS
KANSAS CTY INT MOSUNNY   35  14  42 N15G23    30.44S WCI  25
DOWNTOWN KC    SUNNY     38  15  39 N15G24    30.44S WCI  29
COLUMBIA       SUNNY     34  16  47 NW21      30.36R WCI  22
SEDALIA        SUNNY     37  15  40 N20G26    30.41R WCI  27
ST JOSEPH      SUNNY     33  11  39 N16G26    30.48S WCI  23
ST LOUIS       PTSUNNY   30  19  63 N17G24    30.33R WCI  18
SPIRIT OF STL  PTSUNNY   32  19  59 NW15      30.34R WCI  22
KIRKSVILLE     SUNNY     27  10  49 NW15G21   30.41R WCI  15
WICHITA        PTSUNNY   44  26  49 N17G23    30.41F
TOPEKA         SUNNY     39  17  41 N12G25    30.46S WCI  32
OLATHE         SUNNY     37  14  38 N17       30.42S WCI  27

......TENNESSEE......

CITY           SKY/WX    TMP DP  RH WIND       PRES   REMARKS
MEMPHIS        MOSUNNY   53  28  38 NW13G22   30.25S
NASHVILLE      CLOUDY    43  25  49 N9        30.19R

......ARKANSAS.......

CITY           SKY/WX    TMP DP  RH WIND       PRES   REMARKS
FAYETTEVILLE   SUNNY     51  27  39 N9        30.32S
FT SMITH       SUNNY     62  27  26 N10       30.29S
LITTLE ROCK    MOSUNNY   62  30  29 W9        30.26S

......OKLAHOMA.......

CITY           SKY/WX    TMP DP  RH WIND       PRES   REMARKS
TULSA          MOSUNNY   51  28  41 N13G22    30.37R
PONCA CITY     SUNNY     50  29  44 N12       30.39F
MCALESTER      SUNNY     59  33  37 NE6       30.32F
OKLAHOMA CITY  MOSUNNY   60  33  36 N15       30.34S

......IOWA............

CITY           SKY/WX    TMP DP  RH WIND       PRES   REMARKS
DES MOINES     MOSUNNY   18   2  49 NW21      30.48R WCI   1
QUAD CITIES    SUNNY     23   1  38 NW28G39   30.31R WCI   6

......ILLINOIS........

CITY           SKY/WX    TMP DP  RH WIND       PRES   REMARKS
QUINCY         SUNNY     25  13  60 NW18      30.35S WCI  11
CHICAGO        PTSUNNY   22   3  44 NW25G33   30.16R WCI   5




USA.gov is the U.S. government's official web portal to all federal, state and local government web resources and services.